This is the latest recevied weather packets stored in our database for station/object W9KHP-1. If no packets are shown the sender has not sent any weather packets the latest 10 day(s).
| Time | Temp. | Humidity | Pressure | Rain* | Wind** | Luminosity | Snow |
|---|---|---|---|---|---|---|---|
| 1778074119 | 9.44° C | 99% | 1016 hPa | 0 mm | - | 149 W/m² | - |
| 1778073816 | 9.44° C | 99% | 1016.5 hPa | 0 mm | - | 144 W/m² | - |
| 1778073515 | 8.89° C | 99% | 1016.1 hPa | 0 mm | - | 109 W/m² | - |
| 1778073211 | 8.89° C | 99% | 1015.8 hPa | 0 mm | - | 105 W/m² | - |
| 1778072908 | 9.44° C | 99% | 1015.8 hPa | 0 mm | - | 102 W/m² | - |
| 1778072604 | 8.89° C | 99% | 1015.6 hPa | 0 mm | - | 134 W/m² | - |
| 1778072302 | 8.89° C | 99% | 1015.7 hPa | 0 mm | - | 111 W/m² | - |
| 1778072000 | 8.89° C | 99% | 1015.7 hPa | 0 mm | - | 103 W/m² | - |
| 1778071699 | 8.33° C | 99% | 1015.8 hPa | 0 mm | - | 88 W/m² | - |
| 1778071395 | 8.89° C | 99% | 1016.1 hPa | 0 mm | - | 75 W/m² | - |
| 1778071093 | 8.89° C | 99% | 1016 hPa | 0 mm | - | 83 W/m² | - |
| 1778070791 | 8.89° C | 99% | 1015.5 hPa | 0 mm | - | 92 W/m² | - |
| 1778070488 | 8.33° C | 99% | 1015.4 hPa | 0 mm | - | 100 W/m² | - |
| 1778070185 | 8.33° C | 99% | 1015.7 hPa | 0 mm | - | 75 W/m² | - |
| 1778069883 | 8.33° C | 99% | 1015.3 hPa | 0 mm | - | 61 W/m² | - |
| 1778069580 | 8.33° C | 99% | 1015.3 hPa | 0 mm | - | 77 W/m² | - |
| 1778069277 | 8.33° C | 99% | 1015.3 hPa | 0 mm | - | 44 W/m² | - |
| 1778068975 | 8.33° C | 99% | 1015.1 hPa | 0 mm | - | 47 W/m² | - |
| 1778068672 | 7.78° C | 99% | 1014.8 hPa | 0 mm | - | 43 W/m² | - |
| 1778068370 | 7.78° C | 99% | 1014.7 hPa | 0 mm | - | 40 W/m² | - |
| 1778068068 | 7.78° C | 99% | 1015.1 hPa | 0 mm | - | 35 W/m² | - |
| 1778067765 | 7.78° C | 99% | 1015.3 hPa | 0 mm | - | 33 W/m² | - |
| 1778067463 | 7.78° C | 99% | 1015.2 hPa | 0 mm | - | 29 W/m² | - |
| 1778067160 | 7.78° C | 99% | 1015.4 hPa | 0 mm | - | 28 W/m² | - |
| 1778066857 | 7.78° C | 99% | 1014.8 hPa | 0 mm | - | 23 W/m² | - |
* Rain latest hour (hover to see other rain measurements)
** Current wind speed in m/s (hover to see current wind gust speed)